Satellite-Ground Cal/Val Region Overpasses Predictions

Prediction of Satellite NPP Overpassing Cal/Val Region: PacNW

Region Location: (Latitude: 10.00, Longitude: 139.50) to (Latitude: 22.70, Longitude: 165.60).

Table of predicted overpasses for the next 14.0 days since TLE Epoch: 11/20/2020
Interval Starting Time Starting Location Ending Time Ending Location
1 11/21/2020 03:36:09 ( 10.05, 145.63) 11/21/2020 03:39:44 ( 22.68, 142.63)
2 11/21/2020 14:29:41 ( 11.56, 165.59) 11/21/2020 14:30:07 ( 10.03, 165.24)
3 11/21/2020 16:08:02 ( 22.64, 142.86) 11/21/2020 16:11:37 ( 10.02, 139.86)
4 11/22/2020 03:17:05 ( 10.00, 150.41) 11/22/2020 03:20:41 ( 22.68, 147.39)
5 11/22/2020 15:48:58 ( 22.70, 147.63) 11/22/2020 15:52:34 ( 10.01, 144.62)
6 11/23/2020 02:58:03 ( 10.01, 155.16) 11/23/2020 03:01:39 ( 22.69, 152.15)
7 11/23/2020 15:29:56 ( 22.69, 152.39) 11/23/2020 15:33:32 ( 10.01, 149.38)
8 11/24/2020 02:39:01 ( 10.01, 159.92) 11/24/2020 02:42:37 ( 22.69, 156.91)
9 11/24/2020 15:10:53 ( 22.68, 157.15) 11/24/2020 15:14:29 ( 10.00, 154.13)
10 11/25/2020 02:19:58 ( 10.02, 164.68) 11/25/2020 02:23:34 ( 22.70, 161.67)
11 11/25/2020 14:51:51 ( 22.68, 161.90) 11/25/2020 14:55:26 ( 10.05, 158.91)
12 11/26/2020 03:42:26 ( 10.03, 144.06) 11/26/2020 03:46:01 ( 22.65, 141.06)
13 11/26/2020 14:34:02 ( 18.33, 165.60) 11/26/2020 14:36:23 ( 10.05, 163.66)
14 11/26/2020 16:14:18 ( 22.66, 141.29) 11/26/2020 16:16:23 ( 15.33, 139.51)
15 11/27/2020 03:23:23 ( 10.04, 148.82) 11/27/2020 03:26:58 ( 22.66, 145.82)
16 11/27/2020 15:55:16 ( 22.65, 146.04) 11/27/2020 15:58:51 ( 10.03, 143.04)
17 11/28/2020 03:04:21 ( 10.05, 153.58) 11/28/2020 03:07:56 ( 22.67, 150.58)
18 11/28/2020 15:36:13 ( 22.65, 150.80) 11/28/2020 15:39:48 ( 10.02, 147.80)
19 11/29/2020 02:45:18 ( 10.05, 158.33) 11/29/2020 02:48:53 ( 22.68, 155.33)
20 11/29/2020 15:17:10 ( 22.70, 155.57) 11/29/2020 15:20:46 ( 10.02, 152.56)
21 11/30/2020 02:26:15 ( 10.00, 163.10) 11/30/2020 02:29:51 ( 22.69, 160.09)
22 11/30/2020 14:58:08 ( 22.69, 160.33) 11/30/2020 15:01:44 ( 10.01, 157.32)
23 12/01/2020 02:09:57 ( 19.70, 165.59) 12/01/2020 02:10:48 ( 22.69, 164.85)
24 12/01/2020 03:48:42 ( 10.02, 142.48) 12/01/2020 03:52:16 ( 22.59, 139.50)
25 12/01/2020 14:39:05 ( 22.68, 165.09) 12/01/2020 14:42:40 ( 10.06, 162.09)
26 12/01/2020 16:20:35 ( 22.67, 139.71) 12/01/2020 16:20:49 ( 21.85, 139.51)
27 12/02/2020 03:29:40 ( 10.03, 147.24) 12/02/2020 03:33:15 ( 22.65, 144.24)
28 12/02/2020 16:01:33 ( 22.66, 144.47) 12/02/2020 16:05:08 ( 10.04, 141.47)
29 12/03/2020 03:10:37 ( 10.04, 152.00) 12/03/2020 03:14:12 ( 22.66, 149.00)
30 12/03/2020 15:42:30 ( 22.65, 149.22) 12/03/2020 15:46:05 ( 10.03, 146.23)
31 12/04/2020 02:51:35 ( 10.05, 156.76) 12/04/2020 02:55:10 ( 22.68, 153.76)
